Regional Weather Roundup
Issued by NWS

Home | Current Version | Previous Version | Text Only | Print | Product List | Glossary On
Versions: 1 2 3 4 5 6 7 8 9 10 11 12 13 14 15 16 17 18 19 20 21 22 23 24 25 26 27 28 29 30 31 32 33 34 35 36 37 38 39 40 41 42 43 44 45 46 47 48 49 50
000
ASUS45 KPSR 052010
RWRAZ

ARIZONA REGIONAL HOURLY WEATHER ROUNDUP
NATIONAL WEATHER SERVICE PHOENIX AZ
100 PM MST THU MAR 05 2015

NOTE: FAIR INDICATES FEW OR NO CLOUDS BELOW 12,000 FEET WITH NO
SIGNIFICANT WEATHER AND/OR OBSTRUCTIONS TO VISIBILITY.

AZZ001>003-036-052100-
NORTHWEST ARIZONA

CITY           SKY/WX    TMP DP  RH WIND       PRES   REMARKS
BULLHEAD CITY  SUNNY     64  23  20 N24G30    30.32F
KINGMAN        SUNNY     58  24  27 VRB7      30.33
$$

AZZ004>008-015-016-018-052100-
NORTH CENTRAL ARIZONA

CITY           SKY/WX    TMP DP  RH WIND       PRES   REMARKS
GRAND CANYON   SUNNY     44  18  35 SW7       30.38F
PRESCOTT       SUNNY     54  10  17 NE8       30.34F
FLAGSTAFF      SUNNY     42   9  25 NE6       30.37F
PAYSON         SUNNY     55  16  21 CALM      30.34F
PAGE           SUNNY     47  22  37 NE6       30.40F
$$

AZZ009>014-017-052100-
NORTHEAST ARIZONA

CITY           SKY/WX    TMP DP  RH WIND       PRES   REMARKS
WINSLOW        SUNNY     49  13  23 CALM      30.39F
SAINT JOHNS    SUNNY     49   1  14 VRB5      30.35F
WINDOW ROCK    SUNNY     49   5  16 VRB3      30.35F
SHOW LOW       SUNNY     45  10  24 N12       30.38F
$$

AZZ023-052100-
GREATER PHOENIX AREA

CITY           SKY/WX    TMP DP  RH WIND       PRES   REMARKS
PHOENIX        SUNNY     69  15  12 E8        30.24
BUCKEYE        SUNNY     68  16  13 E9        30.27F
GLENDALE       SUNNY     70  19  14 NE6       30.27
LUKE AFB       SUNNY     69  16  13 NE7       30.25F
DEER VALLEY    SUNNY     69   6   8 VRB5      30.25F
SCOTTSDALE     SUNNY     68  11  11 VRB3      30.26F
MESA-FALCON    SUNNY     66  14  13 NE12      30.25F
MESA-GATEWAY   SUNNY     66  21  18 CALM      30.27F
CHANDLER       SUNNY     68  16  13 NE7       30.26
$$

AZZ027-028-052100-
SOUTHWEST MARICOPA COUNTY AND PINAL COUNTY

CITY           SKY/WX    TMP DP  RH WIND       PRES   REMARKS
CASA GRANDE    SUNNY     66  25  20 NE6       30.25F
GILA BEND      SUNNY     71  20  15 NE12G18   30.24F
$$

AZZ503-504-507>509-052100-
SOUTHEAST ARIZONA

CITY           SKY/WX    TMP DP  RH WIND       PRES   REMARKS
TUCSON         SUNNY     67  22  18 MISG      30.24F
DAVIS-MONTHAN  SUNNY     66  22  18 E9G18     30.22F
RYAN FIELD       N/A     68  27  21 NE13      30.23
NOGALES        SUNNY     65  24  21 VRB5      30.20F
SIERRA VISTA   SUNNY     57  21  24 E17G23    30.26F
DOUGLAS        SUNNY     58  29  33 E17G28    30.27F
SAFFORD        SUNNY     59  17  19 SE12G20   30.30F
$$

AZZ020-021-025-026-031-052100-
SOUTHWEST ARIZONA

CITY           SKY/WX    TMP DP  RH WIND       PRES   REMARKS
YUMA           SUNNY     73  31  21 N9        30.25F
$$

CAZ031-033-041-043-047-048-061-052100-
SOUTHERN CALIFORNIA

CITY           SKY/WX    TMP DP  RH WIND       PRES   REMARKS
DOWNTOWN L.A.  SUNNY     75  26  16 CALM      30.23
L.A. AIRPORT   MOSUNNY   71  25  17 W10       30.25F
SAN DIEGO      SUNNY     70  31  23 NW9       30.24F
BURBANK        SUNNY     72  20  14 SW7       30.24F
ONTARIO        MOSUNNY   70  22  16 VRB3      30.25F
RIVERSIDE      SUNNY     72  15  11 VRB5      30.25F
PALM SPRINGS   SUNNY     74  17  11 VRB5      30.30F
EL CENTRO NAS  MOSUNNY   72  29  20 VRB7      30.27F
IMPERIAL       SUNNY     71  29  21 E3        30.27F
BLYTHE         SUNNY     68  31  25 VRB3      30.29F
$$

NVZ020-UTZ003-052100-
SOUTHERN NEVADA-UTAH

CITY           SKY/WX    TMP DP  RH WIND       PRES   REMARKS
LAS VEGAS      SUNNY     59  21  23 VRB3      30.34F
SALT LAKE CITY MOSUNNY   44  21  40 S7        30.43F
$$

NMZ009-TXZ055-052100-
NEW MEXICO-WEST TEXAS

CITY           SKY/WX    TMP DP  RH WIND       PRES   REMARKS
ALBUQUERQUE    SUNNY     43  14  31 E5        30.37F
EL PASO        MOSUNNY   44  23  43 E6        30.41
$$


........................KEY........................
SKY/WX - SKY CONDITION/WEATHER
TMP    - TEMPERATURE IN FAHRENHEIT
DP     - DEW POINT IN FAHRENHEIT
RH     - RELATIVE HUMIDITY IN PERCENT
WIND   - DIRECTION AND SPEED IN MILES PER HOUR (MPH)
VRB    - VARIABLE WIND DIRECTION
PRES   - MEAN SEA LEVEL PRESSURE IN INCHES OF MERCURY
         F - FALLING PRESSURE   R - RISING PRESSURE
         S - STEADY PRESSURE
VSB    - VISIBILITY IN MILES
HX     - HEAT INDEX IN FAHRENHEIT
WCI    - WIND CHILL INDEX IN FAHRENHEIT
TC     - TEMPERATURE IN CELSIUS WHICH IS ALSO KNOWN AS
         TEMPERATURE IN CENTIGRADE
AFB    - AIR FORCE BASE
         LUKE AFB IS LUKE AIR FORCE BASE
         DAVIS-MONTHAN IS DAVIS-MONTHAN AIR FORCE BASE
NAS    - NAVAL AIR STATION
         EL CENTRO NAS IS EL CENTRO NAVAL AIR STATION
N/A    - NOT AVAILABLE



USA.gov is the U.S. government's official web portal to all federal, state and local government web resources and services.